DateTimeUTC,F1_A11,F1_S11,BsB_S11,BsG_S11,BsR_S11,BbsB_S11,BbsG_S11,BbsR_S11,BaB_A11,BaG_A11,BaR_A11,Tu_S11,T_S11,Uu_S11,U_S11,P_S11,T1_A11
2021-08-02T14:00:00Z,00000200,20000000,,,,,,,0000.15,0000.09,0000.05,20.2,26.3,05.9,04.1,0673.1,31.1
2021-08-02T14:01:00Z,00000200,20000000,,,,,,,-000.13,0000.21,0000.01,20.2,26.3,05.9,04.1,0673.1,31.1
2021-08-02T14:02:00Z,00000200,20000000,,,,,,,0000.02,0000.16,-000.16,20.2,26.3,05.9,04.1,0673.1,31.1
2021-08-02T14:03:00Z,00000200,60000000,,,,,,,0001.16,0000.58,0000.79,20.2,26.3,05.9,04.1,0673.1,31.1
2021-08-02T14:04:00Z,00000200,40000000,0008.06,0005.18,0003.38,0000.53,0000.68,0000.66,0001.67,0001.32,0001.19,20.3,26.2,06.0,04.2,0674.1,31.1
2021-08-02T14:05:00Z,00000200,00000000,0007.85,0005.28,0003.11,0000.82,0000.53,0000.61,0001.43,0001.86,0000.80,20.4,26.2,06.0,04.2,0674.2,31.1
2021-08-02T14:06:00Z,00000200,00000000,0006.87,0004.90,0003.09,0000.90,0000.16,0000.57,0001.75,0001.46,0001.60,20.4,26.2,06.1,04.3,0674.2,31.1
2021-08-02T14:07:00Z,00000200,00000000,0007.02,0005.25,0003.38,0000.78,0000.64,0000.74,0001.61,0001.30,0000.95,20.4,26.2,06.1,04.3,0674.2,31.1
2021-08-02T14:08:00Z,00000200,00000000,0008.93,0005.09,0003.25,0001.13,0000.67,0000.69,0001.58,0001.66,0000.88,20.4,26.2,06.2,04.4,0674.1,31.1
2021-08-02T14:09:00Z,00000200,00000000,0007.26,0005.30,0003.51,0000.84,0000.88,0000.73,0001.83,0001.72,0001.60,20.4,26.2,06.2,04.4,0674.2,31.1
2021-08-02T14:10:00Z,00000200,00000000,0007.92,0005.17,0003.21,0000.98,0000.59,0000.39,0001.38,0001.20,0000.68,20.4,26.2,06.3,04.4,0674.1,31.1
2021-08-02T14:11:00Z,00000200,00000000,0007.59,0005.34,0003.12,0000.53,0000.74,0000.45,0001.81,0001.70,0001.69,20.5,26.2,06.2,04.4,0674.1,31.1
2021-08-02T14:12:00Z,00000200,00000000,0007.55,0005.32,0003.64,0000.90,0000.66,0000.47,0001.55,0001.35,0000.60,20.5,26.2,06.3,04.4,0674.1,31.1
2021-08-02T14:13:00Z,00000200,00000000,0007.34,0004.98,0003.23,0001.03,0000.65,0000.51,0001.35,0001.14,0001.12,20.5,26.3,06.2,04.4,0674.1,31.1
2021-08-02T14:14:00Z,00000200,00000000,0007.09,0005.02,0003.32,0000.79,0000.15,0000.76,0001.52,0001.39,0001.06,20.5,26.3,06.2,04.4,0674.1,31.1
2021-08-02T14:15:00Z,00000200,00000000,0007.46,0005.10,0003.35,0000.60,0000.44,0000.78,0001.69,0001.42,0000.97,20.5,26.3,06.1,04.3,0674.1,31.1
2021-08-02T14:16:00Z,00000200,00000000,0008.20,0005.35,0003.28,0000.83,0000.69,0000.57,0001.67,0001.38,0001.35,20.6,26.3,06.1,04.3,0674.1,31.1
2021-08-02T14:17:00Z,00000200,00000000,0007.17,0005.01,0003.19,0000.67,0000.21,0000.50,0001.56,0001.81,0001.13,20.6,26.3,06.2,04.4,0674.1,31.1
2021-08-02T14:18:00Z,00000200,00000000,0007.06,0005.24,0003.22,0000.87,0000.66,0000.82,0001.66,0001.23,0001.05,20.6,26.3,06.1,04.3,0674.1,31.1
2021-08-02T14:19:00Z,00000200,00000000,0007.40,0005.23,0003.57,0000.47,0000.41,0000.56,0001.47,0001.40,0001.08,20.6,26.3,06.1,04.3,0674.1,31.1
2021-08-02T14:20:00Z,00000200,00000000,0007.90,0005.15,0003.54,0000.39,0000.90,0000.58,0001.41,0001.44,0000.97,20.6,26.3,06.1,04.3,0674.1,31.1
2021-08-02T14:21:00Z,00000200,00000000,0007.30,0005.13,0003.11,0000.90,0000.47,0000.69,0002.02,0001.56,0001.11,20.7,26.4,06.1,04.3,0674.1,31.1
2021-08-02T14:22:00Z,00000200,00000000,0007.62,0005.34,0003.05,0000.84,0000.31,0000.65,0001.51,0001.67,0001.61,20.7,26.4,06.2,04.4,0674.1,31.1
2021-08-02T14:23:00Z,00000200,00000000,0007.25,0005.34,0003.45,0000.56,0000.48,0000.53,0001.67,0001.56,0001.02,20.7,26.4,06.2,04.4,0674.2,31.1
2021-08-02T14:24:00Z,00000200,00000000,0006.46,0005.29,0003.35,0000.91,0000.64,0000.66,0001.66,0001.09,0000.98,20.7,26.4,06.2,04.4,0674.1,31.1
2021-08-02T14:25:00Z,00000200,00000000,0007.62,0005.02,0003.11,0000.79,0000.34,0000.68,0001.31,0001.53,0001.40,20.7,26.4,06.1,04.3,0674.1,31.1
2021-08-02T14:26:00Z,00000200,00000000,0007.14,0005.39,0003.33,0001.23,0000.34,0000.66,0001.64,0001.66,0000.66,20.7,26.4,06.2,04.4,0674.2,31.1
2021-08-02T14:27:00Z,00000200,00000000,0006.31,0005.30,0003.63,0001.05,0000.68,0000.77,0001.58,0001.26,0001.03,20.7,26.4,06.1,04.3,0674.1,31.1
2021-08-02T14:28:00Z,00000200,00000000,0008.03,0005.34,0002.95,0000.66,0000.38,0000.23,0001.39,0001.57,0001.42,20.8,26.4,06.1,04.3,0674.2,31.1
2021-08-02T14:29:00Z,00000200,00000000,0007.47,0005.79,0003.40,0000.99,0000.29,0000.75,0001.68,0001.40,0000.88,20.8,26.5,06.1,04.4,0674.2,31.1
2021-08-02T14:30:00Z,00000200,00000000,0006.97,0004.78,0003.32,0001.44,0000.53,0001.04,0001.76,0001.47,0001.37,20.8,26.5,06.1,04.3,0674.2,31.2
2021-08-02T14:31:00Z,00000200,00000000,0008.01,0005.38,0003.36,0000.96,0000.82,0000.82,0001.60,0001.31,0001.13,20.8,26.5,06.0,04.2,0674.2,31.2
2021-08-02T14:32:00Z,00000200,00000000,0006.83,0005.39,0002.98,0000.79,0000.51,0000.54,0001.54,0001.41,0000.92,20.8,26.5,06.1,04.3,0674.2,31.1
2021-08-02T14:33:00Z,00000200,00000000,0007.72,0005.42,0003.55,0001.51,0000.25,0000.46,0001.31,0001.39,0000.92,20.8,26.5,06.0,04.3,0674.2,31.1
2021-08-02T14:34:00Z,00000200,00000000,0006.94,0005.05,0003.35,0000.69,0000.54,0000.78,0001.59,0001.43,0001.16,20.8,26.5,06.1,04.3,0674.1,31.2
2021-08-02T14:35:00Z,00000200,00000000,0007.31,0005.30,0003.37,0000.75,0000.48,0000.68,0001.50,0001.41,0001.23,20.9,26.5,06.0,04.3,0674.1,31.2
2021-08-02T14:36:00Z,00000200,00000000,0007.81,0005.67,0003.28,0000.56,0000.58,0000.68,0001.79,0001.66,0000.98,20.9,26.5,06.0,04.2,0674.1,31.2
2021-08-02T14:37:00Z,00000200,00000000,0007.61,0005.19,0003.39,0000.82,0000.49,0000.63,0001.58,0001.04,0000.84,20.9,26.5,06.0,04.3,0674.1,31.2
2021-08-02T14:38:00Z,00000200,00000000,0007.71,0005.24,0003.33,0001.48,0000.41,0000.65,0001.64,0001.42,0001.33,20.9,26.6,06.1,04.3,0674.2,31.2
2021-08-02T14:39:00Z,00000200,00000000,0008.62,0005.53,0003.49,0001.43,0000.63,0000.87,0001.55,0001.59,0001.33,20.9,26.6,05.9,04.2,0674.2,31.2
2021-08-02T14:40:00Z,00000200,00000000,0007.22,0005.14,0003.00,0000.72,0000.59,0000.75,0001.51,0001.69,0001.38,20.9,26.6,06.0,04.3,0674.2,31.2
2021-08-02T14:41:00Z,00000200,00000000,0006.78,0005.06,0003.55,0000.94,0000.36,0000.35,0001.88,0001.75,0001.04,20.9,26.6,06.0,04.3,0674.2,31.2
2021-08-02T14:42:00Z,00000200,00000000,0007.18,0004.90,0003.34,0000.62,0000.40,0000.73,0001.65,0001.46,0001.07,20.9,26.6,06.0,04.3,0674.2,31.2
2021-08-02T14:43:00Z,00000200,00000000,0008.33,0005.08,0002.89,0001.29,0000.52,0000.50,0001.55,0001.36,0000.76,21.0,26.6,06.1,04.3,0674.2,31.2
2021-08-02T14:44:00Z,00000200,00000000,0006.84,0005.09,0003.14,0001.02,0000.63,0000.17,0001.28,0001.39,0001.12,21.0,26.6,06.1,04.4,0674.2,31.2
2021-08-02T14:45:00Z,00000200,00000000,0007.60,0005.62,0003.42,0000.94,0000.40,0000.63,0001.58,0001.41,0001.47,21.0,26.6,06.2,04.4,0674.2,31.2
2021-08-02T14:46:00Z,00000200,00000000,0007.49,0005.26,0003.30,0000.72,0000.27,0000.84,0001.68,0001.42,0000.91,21.0,26.6,06.1,04.3,0674.2,31.2
2021-08-02T14:47:00Z,00000200,00000000,0007.89,0005.50,0003.35,0000.66,0000.50,0000.56,0001.59,0001.34,0000.85,21.0,26.7,06.1,04.4,0674.2,31.2
2021-08-02T14:48:00Z,00000200,00000000,0007.98,0005.36,0003.33,0000.80,0000.59,0000.63,0001.89,0001.72,0001.70,21.0,26.7,06.1,04.3,0674.2,31.2
2021-08-02T14:49:00Z,00000200,00000000,0006.64,0005.37,0003.38,0000.83,0000.57,0000.75,0001.43,0001.46,0000.78,21.0,26.7,06.1,04.3,0674.2,31.2
2021-08-02T14:50:00Z,00000200,00000000,0006.97,0005.17,0003.14,0000.59,0000.31,0000.59,0001.76,0001.21,0001.31,21.0,26.7,06.1,04.4,0674.2,31.2
2021-08-02T14:51:00Z,00000200,00000000,0006.85,0005.13,0003.27,0001.11,0000.41,0000.50,0001.74,0001.80,0001.26,21.1,26.7,06.2,04.4,0674.2,31.2
2021-08-02T14:52:00Z,00000200,00000000,0007.25,0005.34,0003.45,0000.46,0000.41,0000.60,0000.72,0000.59,0000.01,21.0,26.7,06.2,04.4,0674.2,31.1
2021-08-02T14:53:00Z,00000200,00000000,0007.67,0005.37,0003.15,0001.19,0000.52,0000.41,0001.66,0001.13,0001.14,20.8,26.5,06.2,04.4,0674.2,30.9
2021-08-02T14:54:00Z,00000200,00000000,0007.71,0004.91,0003.11,0000.34,0000.68,0000.35,0002.13,0001.94,0001.53,20.6,26.4,06.3,04.5,0674.1,30.8
2021-08-02T14:55:00Z,00000200,00000000,0007.50,0005.46,0003.10,0000.54,0000.77,0000.84,0001.65,0001.79,0001.51,20.4,26.3,06.5,04.5,0674.1,30.8
2021-08-02T14:56:00Z,00000200,00000000,0008.29,0005.25,0003.53,0000.68,0000.63,0000.70,0001.60,0001.59,0001.18,20.4,26.3,06.4,04.5,0674.1,30.9
2021-08-02T14:57:00Z,00000200,40000000,,,,,,,0000.54,0000.37,0000.19,20.4,26.4,06.6,04.6,0674.2,31.0
2021-08-02T14:58:00Z,00000200,60000000,,,,,,,0000.20,-000.03,0000.20,20.3,26.5,06.4,04.4,0673.1,31.0
2021-08-02T14:59:00Z,00000200,20000000,,,,,,,-000.04,0000.25,-000.39,20.3,26.6,06.4,04.4,0673.1,31.0
